Lid_Strength_Index
8 11 13 11 10 10 10 11 12 10 8 9 10 10 8 7 7 7 7 7 6 7 6 4 3 2 2 2 1 2 1 1 1 1 2 1 2 1 1 1 1 1 1 1
11 13 9 8 8 10 10 12 12 10 8 9 10 10 8 8 8 7 7 6 6 6 7 5 4 3 2 2 2 2 1 1 1 1 1 1 1 1 1 0 0 1 1 1
12 10 8 9 10 11 11 12 12 12 10 9 11 12 11 8 7 7 6 6 5 5 6 7 5 3 2 2 2 2 1 1 1 1 1 1 1 2 2 1 1 1 0 0
10 8 9 10 12 11 14 10 10 11 13 17 11 18 12 10 8 8 7 6 5 6 4 5 6 5 3 2 2 1 1 1 1 1 1 2 2 3 2 1 1 1 0 0
12 10 10 12 11 10 12 9 11 11 13 14 14 16 14 10 10 8 8 7 6 4 4 4 5 5 3 2 2 1 1 1 1 1 1 1 2 2 1 1 1 1 1 1
9 7 8 9 8 8 8 11 12 12 14 19 15 15 15 12 10 8 7 7 6 5 4 4 3 4 4 3 2 2 2 2 1 1 1 1 2 2 2 2 2 1 1 1
11 11 9 8 10 9 10 13 19 20 20 20 13 15 14 10 8 8 8 7 6 6 5 4 5 4 4 4 3 2 2 2 1 1 1 1 1 1 2 2 2 2 1 1
15 17 11 9 10 12 12 13 18 22 21 19 13 18 13 8 6 6 6 6 6 6 6 5 5 4 5 5 4 3 2 2 2 2 1 1 1 1 1 1 1 1 1 1
15 14 9 8 8 9 12 15 11 16 16 19 16 13 10 8 8 7 7 7 7 6 6 5 4 4 5 5 5 4 3 2 2 2 1 1 1 1 1 1 1 1 1 1
11 15 10 9 8 9 11 10 16 16 21 22 18 16 15 12 10 8 8 7 7 6 6 5 5 5 5 4 5 5 4 3 2 2 2 1 1 1 1 1 1 1 1 1
9 12 12 10 12 13 13 14 13 14 16 20 21 17 10 10 9 9 8 8 7 7 7 6 6 6 6 5 5 5 5 5 4 2 2 2 2 1 1 1 1 1 1 1
9 11 16 13 9 8 10 12 12 17 18 16 17 16 8 9 8 8 8 8 7 7 7 6 6 7 7 6 6 7 7 6 5 4 3 2 2 2 2 1 1 1 1 1
9 13 17 15 12 10 11 10 10 12 13 17 19 17 8 9 8 8 9 8 7 6 6 7 6 6 6 5 5 6 6 7 6 6 5 4 3 2 2 2 1 1 1 2
7 12 14 16 14 11 13 11 10 12 16 15 15 13 11 9 9 8 8 8 7 7 6 6 6 6 6 6 6 6 7 6 7 7 7 6 4 3 2 2 2 2 2 2
9 15 13 11 11 11 12 12 11 13 12 15 13 13 10 9 9 9 8 8 8 7 7 6 6 6 5 5 6 6 7 8 7 6 6 6 5 4 3 3 2 2 3 3
9 15 13 16 11 11 14 11 11 12 11 12 11 12 8 8 8 8 8 8 8 7 7 7 6 6 6 6 6 5 6 7 7 6 6 5 5 5 5 5 5 5 5 6
11 14 16 19 13 13 17 14 12 11 10 11 13 10 8 9 9 8 9 10 9 8 7 6 6 7 6 5 5 5 6 7 8 7 6 6 6 6 6 7 7 7 5 5
11 14 15 22 18 20 14 11 10 11 10 10 10 10 9 9 9 9 9 9 8 7 8 8 8 7 5 4 4 4 6 7 8 8 7 9 9 8 9 10 10 11 10 10
9 12 16 19 22 16 14 12 12 13 13 10 11 10 10 9 9 10 9 9 9 8 8 7 7 7 5 6 6 4 6 9 10 9 10 10 10 9 10 10 10 9 12 13
9 9 15 19 22 24 15 12 10 10 16 10 9 10 10 10 13 12 9 8 8 7 7 7 7 7 7 6 5 6 7 10 9 10 11 10 9 9 9 9 10 13 11 13
14 13 15 18 23 18 12 10 9 19 16 13 11 12 12 12 12 11 10 10 9 9 9 8 8 8 8 7 7 7 7 9 8 10 12 12 11 10 9 11 13 13 14 15
16 18 18 19 23 22 10 11 14 15 15 16 16 16 16 14 13 12 12 12 11 11 10 9 10 10 9 8 7 8 7 7 8 9 11 11 12 11 12 12 13 13 13 14
18 14 16 14 15 11 13 15 16 17 18 18 18 17 16 16 16 15 15 14 13 13 12 11 11 11 10 9 8 8 8 7 8 11 12 12 13 12 13 13 13 13 13 13
14 15 16 14 14 18 17 17 18 19 19 18 18 19 19 19 17 17 16 16 16 15 14 13 12 11 11 10 9 8 8 8 9 10 11 12 13 13 13 12 12 12 13 13
20 18 20 16 17 18 17 19 20 20 19 20 20 20 20 19 19 18 18 17 17 17 15 14 14 14 13 11 11 10 9 9 9 10 11 13 13 13 13 12 12 12 12 12
23 24 22 21 22 23 22 21 20 21 22 22 21 22 21 20 21 20 20 18 18 17 17 17 16 15 14 13 12 11 10 10 10 11 11 12 13 13 12 12 13 12 12 12